When you browse on this site, cookies collect data to enhance your experience and personalize the content and advertising you see.
Visit our Privacy Policy to learn more. By continuing to use the site, you agree to this use of cookies and data.
  • In Schweiz
  • Länderverzeichnis
  • Für 7 Tage
  • Wassertemperatur
  • Satellitenkarten
  • Wetterkarte
  • Widgets
  • user-avatar
    Anmelden

    Stündliche Wetter Aurich

    Heute, 24 Juli, Mittwoch

    Zeit Temperatur Niederschläge Wind Luftdruck Luftfeuchtigkeit
    00:00 +19°C° 0 mm 3 m/S 763 mmHg 94%
    01:00 +19°C° 0 mm 3 m/S 762 mmHg 94%
    02:00 +19°C° 0 mm 3 m/S 762 mmHg 94%
    03:00 +19°C° 0 mm 3 m/S 762 mmHg 94%
    04:00 +20°C° 0 mm 3 m/S 762 mmHg 91%
    05:00 +21°C° 0 mm 4 m/S 761 mmHg 87%
    06:00 +22°C° 0 mm 4 m/S 761 mmHg 84%
    07:00 +23°C° 0 mm 4 m/S 761 mmHg 80%
    08:00 +26°C° 0 mm 4 m/S 761 mmHg 77%
    09:00 +28°C° 0 mm 4 m/S 761 mmHg 73%
    10:00 +29°C° 0 mm 4 m/S 761 mmHg 70%
    11:00 +30°C° 0 mm 4 m/S 761 mmHg 66%
    12:00 +33°C° 0 mm 4 m/S 760 mmHg 62%
    13:00 +33°C° 0 mm 4 m/S 760 mmHg 61%
    14:00 +33°C° 0 mm 4 m/S 760 mmHg 60%
    15:00 +34°C° 0 mm 4 m/S 760 mmHg 60%
    16:00 +33°C° 0 mm 3 m/S 760 mmHg 64%
    17:00 +31°C° 0 mm 3 m/S 760 mmHg 69%
    18:00 +30°C° 0 mm 3 m/S 759 mmHg 74%
    19:00 +29°C° 0 mm 3 m/S 760 mmHg 75%
    20:00 +27°C° 0 mm 4 m/S 760 mmHg 76%
    21:00 +26°C° 0 mm 4 m/S 760 mmHg 77%
    22:00 +25°C° 0 mm 4 m/S 760 mmHg 77%
    23:00 +25°C° 0 mm 4 m/S 760 mmHg 78%

    Morgen, 25 Juli, Donnerstag

    Zeit Temperatur Niederschläge Wind Luftdruck Luftfeuchtigkeit
    00:00 +24°C° 0 mm 3 m/S 760 mmHg 79%
    01:00 +24°C° 0 mm 3 m/S 760 mmHg 79%
    02:00 +22°C° 0 mm 3 m/S 760 mmHg 80%
    03:00 +22°C° 0 mm 3 m/S 760 mmHg 80%
    04:00 +24°C° 0 mm 3 m/S 761 mmHg 80%
    05:00 +24°C° 0 mm 3 m/S 761 mmHg 80%
    06:00 +25°C° 0 mm 3 m/S 761 mmHg 80%
    07:00 +27°C° 0 mm 3 m/S 761 mmHg 76%
    08:00 +28°C° 0 mm 3 m/S 761 mmHg 73%
    09:00 +30°C° 0 mm 3 m/S 761 mmHg 69%
    10:00 +31°C° 0 mm 3 m/S 761 mmHg 67%
    11:00 +33°C° 0 mm 3 m/S 761 mmHg 65%
    12:00 +34°C° 0 mm 3 m/S 761 mmHg 63%
    13:00 +34°C° 0 mm 3 m/S 761 mmHg 61%
    14:00 +35°C° 0 mm 3 m/S 761 mmHg 60%
    15:00 +35°C° 0 mm 3 m/S 761 mmHg 59%
    16:00 +34°C° 0 mm 3 m/S 760 mmHg 63%
    17:00 +33°C° 0 mm 3 m/S 760 mmHg 68%
    18:00 +31°C° 0 mm 3 m/S 760 mmHg 72%
    19:00 +29°C° 0 mm 3 m/S 760 mmHg 72%
    20:00 +28°C° 0 mm 4 m/S 761 mmHg 72%
    21:00 +26°C° 0 mm 4 m/S 761 mmHg 72%
    22:00 +26°C° 0 mm 4 m/S 761 mmHg 70%
    23:00 +25°C° 0 mm 4 m/S 761 mmHg 68%

    übermorgen, 26 Juli, Freitag

    Zeit Temperatur Niederschläge Wind Luftdruck Luftfeuchtigkeit
    00:00 +23°C° 0 mm 4 m/S 761 mmHg 65%
    01:00 +23°C° 0 mm 4 m/S 760 mmHg 67%
    02:00 +22°C° 0 mm 4 m/S 760 mmHg 68%
    03:00 +22°C° 0 mm 4 m/S 760 mmHg 69%
    04:00 +22°C° 0 mm 4 m/S 760 mmHg 71%
    05:00 +22°C° 0 mm 5 m/S 760 mmHg 73%
    06:00 +22°C° 0 mm 5 m/S 760 mmHg 74%
    07:00 +23°C° 0 mm 5 m/S 760 mmHg 73%
    08:00 +26°C° 0 mm 6 m/S 760 mmHg 71%
    09:00 +27°C° 0 mm 6 m/S 760 mmHg 69%
    10:00 +28°C° 0 mm 6 m/S 760 mmHg 65%
    11:00 +29°C° 0 mm 6 m/S 760 mmHg 62%
    12:00 +30°C° 0 mm 6 m/S 759 mmHg 58%
    13:00 +30°C° 0 mm 6 m/S 759 mmHg 59%
    14:00 +32°C° 0 mm 6 m/S 759 mmHg 59%
    15:00 +32°C° 0 mm 6 m/S 759 mmHg 59%
    16:00 +30°C° 0 mm 6 m/S 758 mmHg 62%
    17:00 +29°C° 0 mm 6 m/S 758 mmHg 65%
    18:00 +28°C° 0 mm 6 m/S 758 mmHg 69%
    19:00 +27°C° 0 mm 6 m/S 758 mmHg 66%
    20:00 +26°C° 0 mm 7 m/S 758 mmHg 64%
    21:00 +26°C° 0 mm 7 m/S 758 mmHg 62%
    22:00 +23°C° 0 mm 7 m/S 758 mmHg 61%
    23:00 +22°C° 0 mm 7 m/S 759 mmHg 60%

    27 Juli, Samstag

    Zeit Temperatur Niederschläge Wind Luftdruck Luftfeuchtigkeit
    00:00 +21°C° 0 mm 6 m/S 759 mmHg 59%
    01:00 +20°C° 0 mm 6 m/S 758 mmHg 64%
    02:00 +19°C° 0 mm 6 m/S 758 mmHg 69%
    03:00 +17°C° 0 mm 6 m/S 757 mmHg 74%
    04:00 +17°C° 0 mm 6 m/S 757 mmHg 76%
    05:00 +17°C° 0 mm 6 m/S 757 mmHg 79%
    06:00 +19°C° 0 mm 6 m/S 757 mmHg 81%
    07:00 +20°C° 0 mm 7 m/S 757 mmHg 77%
    08:00 +22°C° 0 mm 7 m/S 757 mmHg 73%
    09:00 +24°C° 0 mm 8 m/S 756 mmHg 69%
    10:00 +26°C° 0 mm 8 m/S 756 mmHg 65%
    11:00 +27°C° 0 mm 8 m/S 756 mmHg 62%
    12:00 +28°C° 0 mm 8 m/S 756 mmHg 58%
    13:00 +28°C° 0 mm 7 m/S 755 mmHg 58%
    14:00 +28°C° 0 mm 7 m/S 755 mmHg 58%
    15:00 +29°C° 0 mm 7 m/S 755 mmHg 58%
    16:00 +28°C° 0 mm 6 m/S 755 mmHg 62%
    17:00 +27°C° 0 mm 6 m/S 755 mmHg 67%
    18:00 +26°C° 0 mm 6 m/S 755 mmHg 71%
    19:00 +24°C° 0 mm 6 m/S 755 mmHg 71%
    20:00 +23°C° 0 mm 6 m/S 756 mmHg 71%
    21:00 +22°C° 0 mm 6 m/S 756 mmHg 71%
    22:00 +22°C° 0 mm 6 m/S 756 mmHg 73%
    23:00 +22°C° 0 mm 6 m/S 756 mmHg 75%

    28 Juli, Sonntag

    Zeit Temperatur Niederschläge Wind Luftdruck Luftfeuchtigkeit
    00:00 +21°C° 0 mm 6 m/S 756 mmHg 76%
    01:00 +21°C° 0 mm 6 m/S 756 mmHg 79%
    02:00 +20°C° 0 mm 6 m/S 756 mmHg 81%
    03:00 +20°C° 0 mm 6 m/S 756 mmHg 84%
    04:00 +20°C° 0 mm 6 m/S 756 mmHg 83%
    05:00 +21°C° 0 mm 6 m/S 756 mmHg 83%
    06:00 +21°C° 0 mm 6 m/S 757 mmHg 83%
    07:00 +23°C° 0 mm 6 m/S 757 mmHg 78%
    08:00 +24°C° 0 mm 6 m/S 757 mmHg 72%
    09:00 +27°C° 0 mm 6 m/S 758 mmHg 67%
    10:00 +28°C° 0 mm 6 m/S 758 mmHg 65%
    11:00 +28°C° 0 mm 6 m/S 758 mmHg 63%
    12:00 +29°C° 0 mm 6 m/S 758 mmHg 60%
    13:00 +30°C° 0 mm 6 m/S 758 mmHg 60%
    14:00 +30°C° 0 mm 6 m/S 758 mmHg 59%
    15:00 +30°C° 0 mm 5 m/S 757 mmHg 59%
    16:00 +29°C° 0.3 mm 5 m/S 758 mmHg 65%
    17:00 +28°C° 0.3 mm 5 m/S 758 mmHg 72%
    18:00 +27°C° 0.3 mm 5 m/S 758 mmHg 78%
    19:00 +25°C° 0 mm 5 m/S 758 mmHg 81%
    20:00 +23°C° 0 mm 5 m/S 758 mmHg 83%
    21:00 +22°C° 0 mm 6 m/S 759 mmHg 86%
    22:00 +22°C° 0 mm 5 m/S 759 mmHg 87%
    23:00 +21°C° 0 mm 5 m/S 759 mmHg 88%

    29 Juli, Montag

    Zeit Temperatur Niederschläge Wind Luftdruck Luftfeuchtigkeit
    00:00 +21°C° 0 mm 4 m/S 759 mmHg 89%
    01:00 +21°C° 0 mm 4 m/S 759 mmHg 91%
    02:00 +20°C° 0 mm 4 m/S 759 mmHg 92%
    03:00 +20°C° 0 mm 3 m/S 760 mmHg 93%
    04:00 +20°C° 0 mm 3 m/S 760 mmHg 90%
    05:00 +21°C° 0 mm 4 m/S 760 mmHg 88%
    06:00 +22°C° 0 mm 4 m/S 760 mmHg 85%
    07:00 +25°C° 0 mm 4 m/S 760 mmHg 81%
    08:00 +26°C° 0 mm 4 m/S 760 mmHg 76%
    09:00 +28°C° 0 mm 4 m/S 761 mmHg 72%
    10:00 +29°C° 0.2 mm 3 m/S 761 mmHg 66%
    11:00 +30°C° 0.2 mm 3 m/S 761 mmHg 61%
    12:00 +31°C° 0.2 mm 3 m/S 761 mmHg 55%
    13:00 +31°C° 0 mm 3 m/S 761 mmHg 55%
    14:00 +31°C° 0 mm 3 m/S 760 mmHg 54%
    15:00 +33°C° 0 mm 3 m/S 760 mmHg 54%
    16:00 +30°C° 0 mm 3 m/S 760 mmHg 60%
    17:00 +29°C° 0 mm 3 m/S 760 mmHg 67%
    18:00 +28°C° 0 mm 3 m/S 760 mmHg 73%
    19:00 +27°C° 0 mm 4 m/S 760 mmHg 75%
    20:00 +26°C° 0 mm 4 m/S 761 mmHg 78%
    21:00 +25°C° 0 mm 4 m/S 761 mmHg 80%
    22:00 +23°C° 0 mm 4 m/S 761 mmHg 82%
    23:00 +22°C° 0 mm 4 m/S 761 mmHg 84%
    Mehr zeigen